Notices

What's New in latest Release from April 7th, 2021:

- Updated Glossary, including Speed of Maximum Gust, and Total Hourly Precipitation

- Updated national and regional climate services offices contacts and prices information

- Addition of station inventory lists for 1981-2010, 1971-2000, and 1961-1990 Normals.

Please note that as of June 10, 2021 UTC dates are available for all years 2004-present, and DBA is working on populating the remaining years (2003 to 1953).

If you haven't already, please take our survey and provide feedback about our website: https://eccc.sondage-survey.ca/f/LanguageSelection.aspx?s=442ca660-fcf1-47c0-95a9-59707d6fd709

Hourly Data Report for November 16, 2019

VICTORIA UNIVERSITY CS
BRITISH COLUMBIA
Current Station Operator: ECCC - MSC

48°27'25.200" N
123°18'16.600" W
60.10 m
1018598
71783
WYJ

Download Data

Hourly Data (November 2019)
Hourly Data Report for November 16, 2019
TIME
LST
Temp Definition
°C
Dew Point Definition
°C
Rel Hum Definition
%
Precip. Amount Definition
mm

Wind Dir Definition
10's deg

Wind Spd Definition
km/h
Visibility Definition
km
Stn Press Definition
kPa
Hmdx Definition


Wind Chill Definition


Weather Definition


00:00 7.5 7.2 98 0.0 22 5   101.78     LegendNANA
01:00 8.2 7.9 98 0.0 18 5   101.76     LegendNANA
02:00 7.4 7.1 98 0.0 26 4   101.84     LegendNANA
03:00 9.1 8.8 98 0.0 13 2   101.83     LegendNANA
04:00 9.1 8.8 98 0.0 0 1   101.81     LegendNANA
05:00 9.0 8.8 99 0.0 13 1   101.77     LegendNANA
06:00 8.9 8.7 99 0.0 0 1   101.77     LegendNANA
07:00 8.7 8.5 99 0.0 9 1   101.77     LegendNANA
08:00 8.9 8.6 98 0.0 12 1   101.76     LegendNANA
09:00 9.2 8.8 98 0.0 11 2   101.76     LegendNANA
10:00 9.3 8.9 97 0.3 10 4   101.70     LegendNANA
11:00 9.8 9.4 97 0.0 11 3   101.68     LegendNANA
12:00 9.3 8.3 93 0.0 9 2   101.59     LegendNANA
13:00 10.9 9.5 91 0.0 9 5   101.49     LegendNANA
14:00 10.2 8.3 88 0.0 10 2   101.46     LegendNANA
15:00 10.2 8.6 90 0.0 13 1   101.47     LegendNANA
16:00 9.7 8.7 93 0.7 17 2   101.51     LegendNANA
17:00 9.5 8.7 95 0.0 4 1   101.46     LegendNANA
18:00 9.2 8.8 97 0.6 0 1   101.40     LegendNANA
19:00 8.4 8.1 98 0.6 0 1   101.34     LegendNANA
20:00 9.2 9.0 98 0.0 0 1   101.28     LegendNANA
21:00 9.8 9.4 97 0.6 11 1   101.25     LegendNANA
22:00 9.8 9.3 97 0.0 8 5   101.20     LegendNANA
23:00 9.5 9.2 98 2.8 11 4   101.13     LegendNANA

Notes on Data Quality.

Legend

  • E = Estimated
  • M = Missing
  • NA = Not Available*
  • [empty] = Indicates an unobserved value
Date modified: